Location: Gerlach
(40.6516°N, 119.3568°W)
Time: 13:07:15
(UTC-07:00)

A-11 Canister half - Pass Details

Date: 26 February 2024
Orbit: 1525 x 1683 km, 47.3° (Epoch: 21 April)

Event Time Altitude Azimuth Distance (km) Brightness Sun altitude
Exits shadow 04:42:16 22° 221° (SW) 2,855 10.0 -22.4°
Drops below altitude 10° 04:47:51 10° 185° (S) 3,732 10.9 -21.3°
Sets 04:51:47 0° 171° (S) 4,736 11.6 -20.6°
